Вернуться в каталог

KYOKKO 1 DEB

LostUNKNOWN
NORAD 12406·DEBRIS·🇯🇵 Japan

Запущен Feb 4, 1978 с Uchinoura Space Center

Loading…

Ближайшие Пролёты (ближайшие 24 часа)

TLE

УстаревшееSource: Space-Track

Эпоха: Jan 16, 2026, 21:39 UTC

1 12406U 78014F   26016.90242314  .00000557  00000-0  69760-3 0  9991
2 12406  65.8816 248.7936 1820679 320.0922  27.9079 10.92525490883076

Отслеживайте KYOKKO 1 DEB в реальном времени с AllMySat

Download on the App Store